Starlink 3116

operational
NORAD ID: 49146 Int'l Des: 2021-082 Owner: SPXS Country: US Constellation: starlink
LEOCIRCULAR

关于 Starlink 3116

正在加载描述...

实时位置

正在加载3D地球...

即将过境

高度历史

Altitude vs Time

uPlot chart will show altitude changes over time

两行轨道根数

1 49146U 21082S 25303.88779622 .00000178 00000-0 23142-4 0 9991
2 49146 69.9999 242.1103 0002773 268.0345 92.0496 14.97523908228175
Epoch: Oct 30, 2025 • Age: 11 hours

当前状态

高度 582.0 km
速度 7.57 km/s
星下点 43.78°N, 90.21°E
发射日期 Sep 14, 2021
运行时间 4.1 years
类型 internet

技术详情

分类 Payload
质量 297.00 kg
干质量 275.00 kg
总质量 297.00 kg
长度 0.20 m
直径 2.80 m
跨度 9.00 m
形状 Box + pan
制造商 SPXS
平台类型 Starlink
阶段状态 In Orbit
所有者/国家 SPXS/US

大型星座

Loading constellations...